Location: Bailleul
(50.3375°N, 2.8513°E)
Time: 21:21:06
(UTC+00:00)

Cosmos 2026 Rocket - Pass Details

Date: 19 April 2021
Orbit: 939 x 1001 km, 82.9° (Epoch: 17 May)

Event Time Altitude Azimuth Distance (km) Brightness Sun altitude
Rises 20:03:33 0° 348° (NNW) 3,614 7.7 -11.3°
Reaches altitude 10° 20:06:03 10° 346° (NNW) 2,667 7.0 -11.7°
Maximum altitude 20:12:05 68° 265° (W) 1,018 4.3 -12.4°
Drops below altitude 10° 20:18:07 10° 184° (S) 2,672 6.0 -13.2°
Sets 20:20:37 0° 182° (S) 3,621 6.6 -13.5°
